• In Uzbekistan
  • List of Countries
  • For 7 days
  • Water Temperature
  • Satellite Maps
  • Weather Map
  • Weather Widgets
  • user-avatar
    Login

    Hourly Weather Cajamar

    Today, 22 September, Saturday

    Time Temperature Precipitation Wind Pressure Humidity
    00:00 +19°C° 0 mm 2 mps 697 mmHg 83%
    01:00 +19°C° 0 mm 2 mps 696 mmHg 84%
    02:00 +19°C° 0 mm 2 mps 696 mmHg 84%
    03:00 +19°C° 0 mm 1 mps 696 mmHg 84%
    04:00 +19°C° 0 mm 1 mps 696 mmHg 84%
    05:00 +19°C° 0 mm 1 mps 696 mmHg 83%
    06:00 +19°C° 0 mm 1 mps 696 mmHg 83%
    07:00 +21°C° 0 mm 1 mps 697 mmHg 72%
    08:00 +23°C° 0 mm 2 mps 698 mmHg 62%
    09:00 +26°C° 0 mm 2 mps 698 mmHg 52%
    10:00 +27°C° 0 mm 2 mps 698 mmHg 46%
    11:00 +29°C° 0 mm 2 mps 698 mmHg 40%
    12:00 +31°C° 0 mm 2 mps 698 mmHg 34%
    13:00 +31°C° 0 mm 2 mps 698 mmHg 34%
    14:00 +31°C° 0 mm 2 mps 697 mmHg 33%
    15:00 +31°C° 0 mm 2 mps 697 mmHg 32%
    16:00 +29°C° 0 mm 2 mps 696 mmHg 40%
    17:00 +27°C° 0 mm 2 mps 696 mmHg 47%
    18:00 +25°C° 0 mm 3 mps 696 mmHg 54%
    19:00 +24°C° 0 mm 3 mps 696 mmHg 60%
    20:00 +22°C° 0 mm 3 mps 696 mmHg 66%
    21:00 +21°C° 0 mm 3 mps 697 mmHg 72%
    22:00 +20°C° 0 mm 3 mps 697 mmHg 74%
    23:00 +20°C° 0 mm 2 mps 697 mmHg 75%

    Tomorrow, 23 September, Sunday

    Time Temperature Precipitation Wind Pressure Humidity
    00:00 +20°C° 0 mm 2 mps 697 mmHg 77%
    01:00 +19°C° 0 mm 2 mps 696 mmHg 78%
    02:00 +19°C° 0 mm 2 mps 696 mmHg 78%
    03:00 +19°C° 0 mm 2 mps 696 mmHg 79%
    04:00 +19°C° 0 mm 2 mps 696 mmHg 79%
    05:00 +19°C° 0 mm 1 mps 696 mmHg 79%
    06:00 +19°C° 0 mm 1 mps 696 mmHg 78%
    07:00 +22°C° 0 mm 1 mps 697 mmHg 68%
    08:00 +25°C° 0 mm 1 mps 698 mmHg 57%
    09:00 +28°C° 0 mm 1 mps 699 mmHg 47%
    10:00 +29°C° 0 mm 1 mps 699 mmHg 42%
    11:00 +31°C° 0 mm 1 mps 699 mmHg 36%
    12:00 +33°C° 0 mm 1 mps 699 mmHg 31%
    13:00 +33°C° 0 mm 1 mps 698 mmHg 30%
    14:00 +33°C° 0 mm 1 mps 698 mmHg 30%
    15:00 +33°C° 0 mm 1 mps 697 mmHg 29%
    16:00 +31°C° 0 mm 1 mps 697 mmHg 35%
    17:00 +29°C° 0 mm 1 mps 696 mmHg 41%
    18:00 +27°C° 0 mm 2 mps 696 mmHg 48%
    19:00 +26°C° 0 mm 2 mps 696 mmHg 52%
    20:00 +25°C° 0 mm 2 mps 697 mmHg 56%
    21:00 +24°C° 0 mm 2 mps 697 mmHg 60%
    22:00 +24°C° 0 mm 2 mps 697 mmHg 61%
    23:00 +23°C° 0 mm 2 mps 696 mmHg 63%

    Day after tomorrow, 24 September, Monday

    Time Temperature Precipitation Wind Pressure Humidity
    00:00 +23°C° 0 mm 2 mps 696 mmHg 64%
    01:00 +22°C° 0 mm 1 mps 696 mmHg 65%
    02:00 +22°C° 0 mm 1 mps 695 mmHg 65%
    03:00 +22°C° 0 mm 1 mps 695 mmHg 65%
    04:00 +22°C° 0 mm 1 mps 695 mmHg 65%
    05:00 +21°C° 0 mm 1 mps 695 mmHg 64%
    06:00 +21°C° 0 mm 1 mps 696 mmHg 64%
    07:00 +24°C° 0 mm 1 mps 696 mmHg 57%
    08:00 +26°C° 0 mm 2 mps 697 mmHg 50%
    09:00 +29°C° 0 mm 2 mps 698 mmHg 43%
    10:00 +30°C° 0 mm 2 mps 698 mmHg 38%
    11:00 +32°C° 0 mm 2 mps 698 mmHg 33%
    12:00 +34°C° 0 mm 2 mps 698 mmHg 28%
    13:00 +34°C° 0 mm 2 mps 697 mmHg 28%
    14:00 +35°C° 0 mm 2 mps 697 mmHg 28%
    15:00 +35°C° 0 mm 2 mps 696 mmHg 28%
    16:00 +32°C° 0 mm 2 mps 696 mmHg 33%
    17:00 +30°C° 0 mm 2 mps 696 mmHg 38%
    18:00 +28°C° 0 mm 1 mps 696 mmHg 44%
    19:00 +27°C° 0 mm 2 mps 696 mmHg 46%
    20:00 +26°C° 0 mm 2 mps 696 mmHg 48%
    21:00 +25°C° 0 mm 2 mps 697 mmHg 51%
    22:00 +25°C° 0 mm 2 mps 697 mmHg 52%
    23:00 +24°C° 0 mm 2 mps 696 mmHg 53%

    25 September, Tuesday

    Time Temperature Precipitation Wind Pressure Humidity
    00:00 +24°C° 0 mm 2 mps 696 mmHg 55%
    01:00 +24°C° 0 mm 2 mps 696 mmHg 56%
    02:00 +23°C° 0 mm 2 mps 695 mmHg 57%
    03:00 +23°C° 0 mm 2 mps 695 mmHg 58%
    04:00 +21°C° 0 mm 2 mps 695 mmHg 59%
    05:00 +21°C° 0 mm 2 mps 695 mmHg 60%
    06:00 +22°C° 0 mm 1 mps 696 mmHg 61%
    07:00 +24°C° 0 mm 1 mps 696 mmHg 55%
    08:00 +26°C° 0 mm 2 mps 697 mmHg 48%
    09:00 +29°C° 0 mm 2 mps 698 mmHg 41%
    10:00 +31°C° 0 mm 2 mps 698 mmHg 37%
    11:00 +32°C° 0 mm 2 mps 698 mmHg 33%
    12:00 +35°C° 0 mm 2 mps 698 mmHg 29%
    13:00 +35°C° 0 mm 2 mps 697 mmHg 30%
    14:00 +34°C° 0 mm 2 mps 696 mmHg 31%
    15:00 +34°C° 0 mm 2 mps 695 mmHg 33%
    16:00 +31°C° 0 mm 2 mps 695 mmHg 38%
    17:00 +30°C° 0 mm 1 mps 695 mmHg 43%
    18:00 +28°C° 0 mm 1 mps 695 mmHg 48%
    19:00 +27°C° 0 mm 2 mps 695 mmHg 54%
    20:00 +26°C° 0 mm 2 mps 695 mmHg 59%
    21:00 +25°C° 0 mm 2 mps 696 mmHg 64%
    22:00 +25°C° 0 mm 2 mps 695 mmHg 65%
    23:00 +24°C° 0 mm 2 mps 695 mmHg 66%

    26 September, Wednesday

    Time Temperature Precipitation Wind Pressure Humidity
    00:00 +24°C° 0 mm 2 mps 695 mmHg 67%
    01:00 +24°C° 0 mm 2 mps 694 mmHg 65%
    02:00 +24°C° 0 mm 2 mps 694 mmHg 63%
    03:00 +23°C° 0 mm 2 mps 693 mmHg 61%
    04:00 +23°C° 0 mm 2 mps 694 mmHg 62%
    05:00 +23°C° 0 mm 2 mps 694 mmHg 62%
    06:00 +23°C° 0 mm 2 mps 694 mmHg 63%
    07:00 +25°C° 0 mm 2 mps 694 mmHg 56%
    08:00 +27°C° 0 mm 3 mps 695 mmHg 50%
    09:00 +29°C° 0 mm 4 mps 695 mmHg 44%
    10:00 +32°C° 0 mm 4 mps 695 mmHg 39%
    11:00 +34°C° 0 mm 4 mps 695 mmHg 33%
    12:00 +35°C° 0 mm 5 mps 694 mmHg 28%
    13:00 +35°C° 0 mm 5 mps 694 mmHg 28%
    14:00 +36°C° 0 mm 5 mps 693 mmHg 28%
    15:00 +36°C° 0 mm 4 mps 693 mmHg 28%
    16:00 +33°C° 0.2 mm 4 mps 693 mmHg 35%
    17:00 +30°C° 0.2 mm 3 mps 693 mmHg 43%
    18:00 +28°C° 0.2 mm 2 mps 693 mmHg 50%
    19:00 +26°C° 0.2 mm 3 mps 693 mmHg 59%
    20:00 +25°C° 0.2 mm 3 mps 693 mmHg 69%
    21:00 +22°C° 0.2 mm 3 mps 694 mmHg 78%
    22:00 +22°C° 1.1 mm 3 mps 694 mmHg 80%
    23:00 +23°C° 1.1 mm 2 mps 694 mmHg 81%

    27 September, Thursday

    Time Temperature Precipitation Wind Pressure Humidity
    00:00 +21°C° 1.1 mm 2 mps 694 mmHg 83%
    01:00 +21°C° 0.5 mm 2 mps 693 mmHg 82%
    02:00 +21°C° 0.5 mm 2 mps 693 mmHg 81%
    03:00 +21°C° 0.5 mm 2 mps 693 mmHg 81%
    04:00 +21°C° 0 mm 2 mps 693 mmHg 82%
    05:00 +21°C° 0 mm 2 mps 693 mmHg 82%
    06:00 +21°C° 0 mm 2 mps 693 mmHg 83%
    07:00 +23°C° 0 mm 2 mps 694 mmHg 77%
    08:00 +25°C° 0 mm 2 mps 694 mmHg 71%
    09:00 +26°C° 0 mm 2 mps 695 mmHg 65%
    10:00 +27°C° 0 mm 3 mps 695 mmHg 59%
    11:00 +29°C° 0 mm 3 mps 695 mmHg 53%
    12:00 +30°C° 0 mm 3 mps 695 mmHg 46%
    13:00 +31°C° 0 mm 3 mps 694 mmHg 45%
    14:00 +31°C° 0 mm 3 mps 694 mmHg 44%
    15:00 +31°C° 0 mm 2 mps 694 mmHg 42%
    16:00 +29°C° 0.1 mm 2 mps 694 mmHg 49%
    17:00 +28°C° 0.1 mm 2 mps 694 mmHg 56%
    18:00 +26°C° 0.1 mm 2 mps 693 mmHg 63%
    19:00 +25°C° 0.7 mm 2 mps 694 mmHg 69%
    20:00 +24°C° 0.7 mm 3 mps 694 mmHg 75%
    21:00 +22°C° 0.7 mm 3 mps 695 mmHg 81%
    22:00 +21°C° 0.4 mm 3 mps 695 mmHg 82%
    23:00 +21°C° 0.4 mm 2 mps 695 mmHg 84%
    Show more